National Weather Service United States Department of Commerce


607
ASUS42 KCAE 191610
RWRCAE
REGIONAL WEATHER ROUNDUP
NATIONAL WEATHER SERVICE COLUMBIA SC
1200 PM EDT THU OCT 19 2017

NOTE: "FAIR" INDICATES FEW OR NO CLOUDS BELOW 12,000 FEET WITH NO
SIGNIFICANT WEATHER AND/OR OBSTRUCTIONS TO VISIBILITY.

NOT ALL STATIONS ARE QUALITY CONTROLLED BY THE NATIONAL
WEATHER SERVICE. USE DATA WITH CAUTION...ESPECIALLY
DEWPOINT OBSERVATIONS.

SCZ001>056-GAZ040-063>065-077-191700-
...UPSTATE SOUTH CAROLINA...

CITY SKY/WX TMP DP RH WIND PRES REMARKS
ANDERSON SUNNY 66 41 40 VRB3 30.33F
LIBERTY SUNNY 66 44 45 CALM 30.32F
SPARTANBURG SUNNY 63 43 48 CALM 30.32F
CLEMSON SUNNY 64 44 48 NE3 30.34F
GREENVILLE SUNNY 66 39 37 CALM 30.34F
GREENWOOD SUNNY 65 46 50 NE7 30.35S
GREER SUNNY 66 42 41 CALM 30.33F
ROCK HILL SUNNY 66 46 48 NE3 30.33F
CHESTER SUNNY 64 41 42 NE5 30.34F
LAURENS SUNNY 63 45 51 CALM 30.33F


...CENTRAL SOUTH CAROLINA...

CITY SKY/WX TMP DP RH WIND PRES REMARKS
COLUMBIA APT PTSUNNY 69 52 54 N6 30.31F
MCENTIRE ANGB PTSUNNY 71 51 49 CALM 30.31F
ORANGEBURG SUNNY 72 51 47 NE7 30.30F
SUMTER SHAW PTSUNNY 71 51 50 NE8 30.29S
NEWBERRY SUNNY 64 43 45 N6 30.37S
AIKEN FAIR 64 52 63 NE7 30.35F
BARNWELL N/A 73 52 46 NE8 30.30F
MANNING HAZE 72 45 37 MISG 30.29F VSB<1/4
CAMDEN FAIR 68 50 52 CALM 30.32F
LANCASTER SUNNY 66 41 39 E3 30.33F
WINNSBORO MOSUNNY 66 45 45 NE3 30.33S


...EASTERN AND COASTAL SOUTH CAROLINA...

CITY SKY/WX TMP DP RH WIND PRES REMARKS
MYRTLE BEACH SUNNY 77 60 55 N8 30.28S
N MYRTLE BCH SUNNY 76 60 57 NE7 30.26S
CONWAY FAIR 72 59 64 N7 30.27F
MARION FAIR 72 55 56 NE7 30.30S
HARTSVILLE FAIR 68 50 52 N6 30.31F
FLORENCE SUNNY 70 53 54 N9 30.31S
DARLINGTON CLOUDY 67 52 58 NE6 30.32F
CHARLESTON APT MOSUNNY 75 60 59 NE8 30.26S
MOUNT PLEASANT FAIR 75 61 60 N5 30.26S
WALTERBORO SUNNY 73 59 60 N6 30.29S
BEAUFORT SUNNY 75 61 61 NE9 30.27S


...EASTERN GEORGIA...

CITY SKY/WX TMP DP RH WIND PRES REMARKS
AUGUSTA BUSH F MOSUNNY 73 53 49 NE7 30.31F
AUGUSTA DANIEL MOSUNNY 70 51 51 MISG 30.32F
THOMSON CLOUDY 66 53 63 N5 30.37F
CLAXTON FAIR 75 59 58 N9 30.28S
SYLVANIA SUNNY 73 59 62 E9 30.30S
STATESBORO SUNNY 73 52 48 NE5G16 30.29S
SAVANNAH MOSUNNY 76 60 57 N13 30.26F


...SOUTHERN NORTH CAROLINA...

CITY SKY/WX TMP DP RH WIND PRES REMARKS
CHARLOTTE MOSUNNY 66 41 40 NW5 30.33F
MONROE SUNNY 66 43 43 NE5 30.32F
WADESBORO SUNNY 64 47 53 N3 30.33F
RUTHERFORDTON SUNNY 64 44 48 CALM 30.34F
ASHEVILLE SUNNY 61 42 49 N8 30.36F

$$